Location: Saalfelden+am+Steinernen+Meer
(47.4274°N, 12.8411°E)
Time: 05:18:18
(UTC+02:00)

Tianhe-1 - Visible Passes

Search period start: 17 June 2021 00:00
Search period end: 27 June 2021 00:00
Orbit: 374 x 387 km, 41.5° (Epoch: 16 June)

Date Brightness Start Highest point End Pass type
(mag) Time Alt. Az. Time Alt. Az. Time Alt. Az.
21 Jun 3.6 03:52:00 10° SSE 03:52:27 10° SSE 03:52:55 10° SE visible
22 Jun 2.8 04:25:26 10° SSW 04:27:46 19° SSE 04:30:07 10° ESE visible
23 Jun 3.1 03:26:50 14° SSE 03:27:02 14° SSE 03:28:51 10° ESE visible
24 Jun 2.5 04:00:36 15° SW 04:02:25 23° S 04:04:59 10° ESE visible
25 Jun 2.9 03:02:17 18° SSE 03:02:17 18° SSE 03:03:55 10° ESE visible
26 Jun 2.2 03:36:07 22° SSW 03:37:03 26° S 03:39:44 10° ESE visible
